GFSNW_925_rhum_000.txt.gz
RH
45 56 59 59 60 56 49 64 53 46 39 54 65 70 66 63 63 57 60 58 60 59 66 66 65 59 57 53 52 57 51 54 56 52 46 31 28 26 23 35 40 29 32 32
58 47 53 59 60 62 71 57 58 46 56 62 67 58 57 58 61 65 59 63 60 60 65 65 66 66 56 57 51 53 50 59 48 48 48 42 47 36 32 35 40 48 43 32
64 60 55 56 54 61 61 51 43 49 54 62 56 57 57 58 52 61 64 66 58 56 64 60 68 65 55 62 57 71 48 54 52 32 36 40 47 43 36 37 41 35 36 30
69 67 60 63 51 51 60 57 63 64 55 55 57 54 55 55 56 56 58 62 60 57 62 61 60 59 52 53 56 55 52 58 53 48 46 47 48 45 42 45 40 44 35 31
91 69 71 62 57 46 62 50 53 56 61 59 53 59 55 54 52 49 56 58 62 61 55 52 56 56 56 51 51 50 55 51 53 47 34 40 50 46 44 45 41 40 38 39
98 92 74 68 58 48 56 72 66 46 64 62 55 50 50 51 47 48 50 55 55 59 59 56 55 53 54 57 54 52 54 47 43 37 52 50 44 34 38 35 33 37 42 30
92 100 95 79 71 55 57 68 56 48 52 53 54 54 56 54 51 46 44 52 47 45 39 36 39 37 41 44 46 54 49 57 58 52 50 64 38 36 39 41 34 31 33 36
97 94 100 98 86 75 58 70 62 48 44 44 47 53 48 48 48 48 48 43 41 36 32 35 38 38 40 43 52 47 52 48 51 62 54 43 40 33 42 49 36 37 40 54
99 96 95 100 99 90 75 67 69 72 65 63 43 44 47 44 46 46 49 46 48 41 40 43 64 66 45 48 48 72 65 51 54 82 84 73 41 36 37 37 47 40 51 56
97 99 98 96 99 100 97 85 66 75 82 70 53 62 63 48 50 51 54 57 58 54 60 66 71 62 48 54 49 72 90 85 80 73 79 56 40 34 40 54 43 61 48 40
98 98 98 99 99 99 99 99 90 73 88 78 71 58 59 56 54 64 61 62 66 73 70 70 64 65 53 56 47 66 67 84 84 74 86 86 42 47 52 42 55 46 42 44
100 100 99 97 98 100 100 99 99 91 91 89 77 68 61 48 46 58 59 60 62 66 72 71 69 74 70 55 69 45 57 46 49 61 63 43 44 45 44 41 40 44 48 54
96 97 100 100 100 100 100 100 99 100 99 96 94 83 80 75 64 53 70 62 51 66 70 84 84 99 80 82 68 55 45 39 49 46 41 41 38 49 45 46 45 57 59 64
91 94 99 99 100 100 100 99 98 89 93 99 79 78 78 72 75 67 52 63 60 60 78 85 93 99 78 89 63 65 50 49 50 48 40 37 35 36 42 56 63 66 67 64
91 88 92 98 98 100 100 100 99 96 91 98 92 81 80 77 80 77 70 61 66 80 94 96 96 94 91 90 93 92 60 55 56 57 39 44 45 42 58 62 66 65 67 72
89 87 88 87 96 100 100 99 100 99 100 99 100 81 74 77 84 82 78 74 71 78 92 95 94 83 87 99 97 68 60 54 48 52 44 46 61 66 66 67 71 78 84 87
87 85 86 89 100 100 100 90 89 97 100 99 100 97 77 86 86 87 84 82 89 90 94 98 95 96 91 96 94 61 51 46 50 52 60 70 71 70 74 80 95 98 93 58
85 92 96 95 100 100 100 100 97 100 98 96 100 99 86 82 92 88 85 93 93 96 95 94 97 93 98 99 68 55 51 52 56 60 65 73 78 87 98 98 97 69 45 45
97 98 98 95 94 99 100 100 100 100 98 100 100 100 96 84 88 88 93 92 100 93 98 94 97 92 98 80 62 57 56 63 65 85 95 99 99 99 98 95 56 49 47 48
100 100 96 100 99 99 95 92 97 100 99 100 99 84 90 81 90 98 97 99 100 100 95 90 100 87 67 65 64 63 65 68 88 97 98 98 98 97 91 67 54 55 51 48
100 96 99 100 98 94 95 100 99 99 100 95 92 84 88 84 95 98 97 100 100 100 82 98 85 82 71 71 74 81 86 84 80 79 86 84 75 60 41 53 52 50 44 40
94 93 98 96 98 100 100 99 97 98 95 84 93 94 84 100 100 100 100 99 97 96 84 92 85 63 63 67 74 82 78 74 61 58 50 36 38 43 45 44 39 40 45 49
87 88 100 98 100 100 99 98 98 98 90 91 98 97 93 99 99 99 100 99 92 75 92 79 63 57 60 69 78 87 79 56 47 48 47 47 48 45 41 40 44 50 53 52
98 100 99 96 99 93 90 80 80 82 88 95 89 97 93 90 100 96 96 84 88 92 93 84 53 51 54 69 78 86 82 57 46 51 55 46 42 45 49 52 54 54 51 51
100 100 93 94 86 92 90 85 87 90 90 92 93 95 85 96 96 90 94 94 91 79 74 58 49 48 57 72 81 79 78 65 54 57 57 55 49 50 52 55 54 55 57 57
100 100 99 91 96 96 98 97 91 92 89 90 90 95 95 91 93 95 90 86 87 69 69 68 67 54 63 72 77 77 75 67 59 62 61 56 53 55 54 56 58 58 60 66
100 97 92 89 94 91 86 87 85 82 86 94 93 96 88 90 94 92 78 87 67 66 63 63 60 62 65 72 76 79 77 67 61 56 54 54 60 61 63 59 58 67 68 70

GFSNW_925_rhum_003.txt.gz
RH
62 42 51 53 52 49 56 48 44 42 38 46 46 57 54 57 57 50 52 49 49 46 50 53 51 51 52 47 47 48 46 41 46 44 35 28 25 24 22 31 33 29 30 28
71 55 45 51 50 58 65 43 45 40 46 50 56 54 55 53 54 57 50 54 51 49 55 60 54 55 50 50 48 51 46 48 45 52 47 42 45 33 28 26 39 40 35 27
65 64 48 44 46 52 65 37 44 36 43 45 47 50 53 57 50 56 52 54 46 48 52 51 60 56 53 57 52 68 47 48 49 43 40 36 44 44 38 37 43 36 32 29
84 62 60 48 45 45 68 44 52 54 44 49 44 44 46 46 49 50 48 50 48 46 52 50 55 49 49 47 51 48 48 48 40 40 37 35 36 37 35 38 35 37 29 27
85 79 65 56 47 43 50 40 38 39 45 46 40 45 46 45 43 43 50 52 52 43 48 43 52 47 46 45 44 42 46 44 43 39 25 25 29 32 31 31 32 31 31 31
78 90 79 67 51 50 44 53 47 36 55 44 38 40 41 43 41 44 47 47 46 48 52 44 41 40 42 43 41 41 43 36 34 36 27 36 44 33 31 31 27 27 34 27
84 79 91 81 64 53 53 56 45 37 42 37 39 44 45 44 43 39 41 43 39 43 32 30 31 30 28 28 30 34 39 41 41 45 40 65 34 28 29 29 27 26 26 26
100 88 82 86 83 58 62 71 50 42 41 35 41 42 40 41 43 43 42 40 39 30 31 36 41 37 40 40 45 34 32 39 45 57 51 40 36 30 32 36 37 27 28 26
100 100 89 83 90 81 74 64 60 60 57 51 38 39 40 44 42 47 47 48 46 38 34 42 73 67 48 49 56 58 50 41 43 62 78 73 37 33 33 32 45 33 30 35
100 100 100 95 88 94 89 85 62 63 77 59 47 58 58 40 43 48 50 50 52 48 44 58 71 63 45 58 53 63 66 61 60 59 69 55 34 30 33 52 41 48 42 43
99 99 99 100 99 92 91 96 70 72 76 69 62 55 54 54 55 62 56 61 56 52 55 55 62 57 49 53 43 51 58 72 74 63 72 86 34 36 50 35 39 48 43 38
98 98 98 100 100 100 100 99 90 77 91 81 79 68 61 48 48 64 59 65 56 49 65 68 65 67 66 56 70 42 56 44 46 63 60 37 35 37 34 35 38 38 40 40
94 95 100 100 100 100 100 100 100 97 98 95 94 78 71 72 64 50 62 53 47 52 51 72 81 88 73 78 66 56 44 37 45 44 38 34 31 30 31 37 41 40 51 51
93 94 95 99 100 100 99 98 98 96 92 97 76 74 72 71 73 70 59 58 56 60 72 82 89 92 73 78 60 66 51 49 50 49 42 38 34 34 44 48 57 60 62 58
92 93 99 100 98 100 100 100 98 96 99 96 85 72 69 74 72 73 69 58 60 76 91 93 94 87 88 87 85 86 54 53 54 56 40 42 43 43 45 48 55 57 58 73
90 88 91 94 99 100 98 100 100 100 100 100 100 69 67 72 76 72 69 69 69 80 91 93 92 78 80 96 98 59 45 43 45 52 44 44 44 55 56 57 58 62 68 84
89 87 85 88 99 100 100 96 97 99 100 99 98 93 71 75 74 79 81 81 90 90 94 98 91 93 89 95 87 54 42 40 41 40 43 52 50 66 63 68 80 93 97 96
83 84 92 95 99 100 100 99 100 100 95 94 99 98 79 77 84 82 76 90 92 96 94 94 96 93 96 100 68 54 48 44 44 43 47 70 76 77 97 98 98 98 92 48
85 99 99 96 94 98 99 97 99 100 94 100 100 100 98 76 81 82 83 80 95 83 98 91 91 86 99 81 66 54 46 50 56 84 90 93 97 100 97 96 96 84 40 38
99 89 92 100 99 98 92 93 97 100 99 99 100 83 86 74 79 92 88 98 93 100 89 85 100 84 62 57 55 53 54 72 75 98 100 100 100 96 93 88 50 35 36 37
99 91 97 100 94 93 89 100 99 100 100 95 91 83 91 78 92 98 96 100 100 99 82 97 90 80 64 54 63 61 70 70 72 72 70 75 77 86 74 39 36 39 38 36
90 88 95 91 94 100 100 100 99 99 98 86 94 90 85 98 98 99 100 100 99 97 76 91 84 61 50 50 50 56 64 66 68 66 75 75 79 62 28 30 34 34 35 38
87 92 100 91 100 100 99 92 96 95 94 97 98 98 90 98 100 100 100 100 93 69 83 80 63 54 48 47 57 68 72 63 54 52 38 30 30 29 32 32 34 37 39 40
98 100 100 96 95 85 87 77 88 90 94 97 88 97 88 83 98 91 97 80 80 89 90 84 46 41 42 46 59 70 78 57 45 40 34 34 34 36 38 42 40 41 41 41
98 99 92 99 81 93 92 87 87 87 91 94 93 91 80 90 94 89 89 93 89 75 72 51 40 38 41 47 62 67 72 64 44 34 35 35 34 38 39 44 47 46 45 46
100 100 99 86 96 99 93 93 96 91 86 84 87 92 93 91 89 94 89 83 81 71 68 65 61 49 41 48 58 64 65 62 50 37 39 42 45 43 43 46 48 48 50 57
100 100 88 81 97 97 88 83 80 78 83 93 93 96 88 83 94 92 73 84 61 68 64 56 56 56 53 50 56 63 67 67 58 42 47 48 47 50 53 52 53 58 59 58

GFSNW_925_rhum_006.txt.gz
RH
59 51 48 48 46 43 53 64 58 34 44 59 61 70 56 53 54 47 50 51 48 49 50 50 48 59 59 49 46 49 51 53 60 51 38 37 30 29 30 41 38 38 41 43
67 59 51 43 44 49 73 58 51 37 44 67 69 57 57 55 55 58 50 56 51 45 56 63 57 63 52 50 60 62 52 53 68 65 52 43 47 35 31 38 43 54 45 40
87 63 54 45 42 45 61 59 55 56 56 47 51 52 54 60 51 55 50 52 47 48 57 53 65 62 62 57 55 64 54 52 55 56 48 42 51 47 42 45 53 47 44 38
93 80 60 46 38 43 66 54 58 53 62 57 49 47 42 50 54 50 45 51 47 45 56 56 57 55 58 49 48 48 53 53 46 44 40 37 39 42 41 50 46 52 35 35
97 89 74 56 38 46 57 64 48 49 48 42 34 40 48 46 46 49 50 57 47 44 55 50 56 49 44 49 45 44 51 52 42 44 34 30 35 32 30 34 37 38 37 37
99 90 87 71 46 55 47 47 43 53 56 44 38 51 48 51 41 48 50 49 48 60 49 40 37 38 43 45 45 46 47 45 45 45 33 38 49 38 37 35 32 32 38 31
96 98 94 83 63 54 59 60 56 54 47 38 43 44 41 46 48 46 45 43 44 45 30 31 32 30 30 30 33 37 48 48 48 57 49 72 43 30 31 38 32 31 32 32
96 100 97 96 82 51 65 68 58 60 46 40 43 43 45 44 44 48 46 44 43 37 32 43 45 43 43 41 52 47 34 46 54 69 67 54 46 37 36 38 42 34 37 35
98 97 100 97 95 72 71 58 68 65 62 54 37 39 38 46 46 50 52 45 49 43 42 48 82 86 52 56 67 56 52 43 57 90 82 90 43 39 37 36 60 45 43 42
98 98 98 100 95 91 88 84 65 69 77 55 46 60 57 44 48 53 51 52 50 49 52 71 84 69 48 64 57 80 72 65 71 70 79 68 43 43 36 59 59 47 46 44
92 95 97 96 100 98 93 97 68 81 84 73 59 55 59 52 54 64 60 63 62 61 62 68 67 68 57 58 47 56 74 86 85 72 75 83 36 43 52 47 43 45 50 42
94 96 96 98 96 100 100 99 85 74 92 91 82 72 64 47 48 61 58 67 59 59 74 66 68 68 64 58 70 42 66 54 63 72 78 50 36 41 43 44 45 48 48 44
91 98 99 98 98 99 100 99 99 85 97 93 92 80 71 68 56 49 66 62 53 56 67 74 80 82 70 82 74 60 54 46 57 57 42 44 42 39 52 53 55 60 61 65
90 91 99 100 100 100 99 98 98 92 94 99 86 72 69 69 71 66 57 60 60 68 76 87 90 90 75 87 76 80 61 63 62 63 56 50 46 48 54 53 59 64 61 60
90 89 94 99 99 100 100 99 98 96 99 99 94 77 68 71 71 74 72 60 67 79 88 92 94 89 87 92 90 89 66 67 76 71 52 57 55 53 59 63 64 59 64 77
89 87 92 94 97 99 98 99 100 100 100 97 100 74 71 73 73 70 72 72 72 84 92 94 91 79 85 99 99 76 56 52 52 55 50 54 54 51 59 63 65 71 82 85
90 85 85 86 92 100 99 98 97 100 100 100 100 98 78 71 75 84 87 82 92 91 95 98 95 95 93 98 90 58 51 51 52 52 55 62 67 78 77 82 96 98 98 99
83 82 82 93 100 100 99 99 100 100 96 98 100 100 89 77 91 98 89 98 97 98 95 96 97 96 96 99 78 60 57 55 52 56 72 77 81 92 95 98 98 95 90 74
85 92 99 99 96 98 100 94 99 99 94 100 100 100 97 81 83 86 88 84 99 95 99 96 94 96 99 84 76 71 61 58 73 96 98 95 96 100 99 96 95 89 91 66
97 97 95 100 100 95 89 88 98 100 99 99 99 92 96 85 85 90 93 90 91 99 90 91 100 94 73 66 66 67 68 79 86 98 100 100 100 99 97 93 90 76 40 39
96 97 100 99 93 93 90 99 100 100 100 98 96 90 94 88 99 100 98 98 99 93 95 95 94 88 80 66 70 70 74 66 71 78 77 87 88 95 86 84 49 38 40 43
88 87 94 90 98 99 100 96 100 100 97 97 97 95 96 99 100 100 100 99 96 94 86 95 87 81 60 54 50 57 68 73 73 69 74 77 78 78 72 46 40 40 37 35
80 95 100 100 100 99 99 98 98 99 99 99 99 99 97 99 99 100 99 100 97 78 93 84 80 71 54 53 56 62 70 72 62 61 61 60 67 58 35 36 33 33 36 38
100 98 98 96 96 93 93 92 96 99 99 97 95 98 95 96 99 99 98 98 90 95 97 90 76 67 63 55 59 69 79 74 61 58 43 37 37 37 33 33 35 38 42 42
100 99 92 94 92 99 98 95 93 96 97 96 96 91 82 91 97 85 94 99 94 86 87 88 60 50 48 54 67 76 81 83 63 49 44 41 38 40 41 42 44 46 45 46
99 100 100 95 97 97 98 98 100 99 94 97 97 90 93 88 88 98 94 92 90 84 90 92 87 59 51 53 64 75 78 81 70 46 39 39 41 44 44 44 47 48 48 49
100 99 94 93 100 100 96 95 96 87 93 98 92 97 91 90 94 98 88 90 87 92 92 90 83 78 71 59 60 72 75 78 72 55 42 45 47 47 52 64 52 54 57 59

GFSNW_925_rhum_009.txt.gz
RH
94 68 55 50 47 44 56 78 64 39 58 70 80 84 63 54 63 58 56 59 63 68 70 56 73 76 66 54 53 56 52 59 66 55 40 37 34 34 35 47 42 47 49 44
93 84 59 53 48 57 68 76 67 35 42 83 83 60 62 61 64 62 58 61 58 53 58 71 69 69 59 59 60 59 53 62 81 67 52 46 48 39 34 42 52 55 48 44
92 90 72 59 42 52 72 75 64 69 69 66 65 63 62 65 54 56 53 54 50 56 64 63 71 69 63 59 56 62 53 56 58 65 51 53 56 48 44 48 60 55 56 41
99 90 86 68 43 45 74 69 63 62 71 56 56 52 52 59 61 51 50 54 50 54 63 61 65 64 61 50 49 49 55 56 49 45 41 39 41 44 46 55 53 52 36 39
100 91 87 83 53 49 60 72 63 62 61 48 50 58 55 54 54 55 57 63 57 54 61 58 61 58 53 54 47 51 52 57 43 43 38 36 38 38 39 42 44 50 48 45
99 95 90 87 59 55 67 59 56 56 52 50 53 55 51 52 53 50 52 52 60 59 49 41 38 42 48 52 50 53 52 49 49 46 46 43 47 38 39 37 33 34 42 33
99 100 91 91 80 58 70 66 73 63 55 53 57 49 52 53 51 54 48 50 55 47 37 33 34 35 34 35 41 44 56 53 56 62 54 74 42 38 34 39 39 36 34 35
99 100 95 91 87 61 54 62 74 69 57 56 51 52 56 51 56 55 56 53 50 50 36 51 51 54 48 56 65 62 44 56 61 72 76 62 49 48 40 41 44 40 40 46
97 99 99 84 91 77 75 68 72 82 67 58 42 48 46 58 59 56 53 48 51 45 50 60 83 83 62 63 71 62 52 56 62 89 83 86 56 42 38 40 54 50 47 48
93 98 100 99 91 87 88 83 70 83 86 68 55 65 58 54 62 66 54 49 45 45 58 77 84 76 52 70 70 78 75 71 74 79 83 73 54 43 38 54 55 51 48 46
92 94 98 100 98 92 91 98 73 83 92 81 62 56 59 56 63 70 64 64 62 62 64 78 77 75 67 62 59 76 79 90 85 79 83 84 45 44 50 56 53 54 55 54
91 95 96 100 99 100 92 98 81 77 92 92 86 76 70 50 53 65 61 71 64 63 80 78 78 74 73 69 73 50 65 68 80 75 73 52 50 56 51 52 56 57 54 52
88 90 92 92 100 99 95 95 88 83 94 92 89 85 73 66 51 48 68 66 58 62 73 78 81 75 76 82 79 61 58 53 66 60 52 50 54 62 58 56 58 62 59 60
88 85 89 100 100 100 99 96 92 84 93 95 93 72 72 72 70 57 57 60 64 71 78 89 86 84 73 87 82 83 71 64 71 74 61 57 53 54 55 58 59 63 62 63
89 86 82 98 100 100 100 98 98 94 91 98 95 81 75 72 74 73 58 61 71 78 83 89 93 91 85 90 94 99 78 75 85 86 66 67 66 60 60 66 64 70 72 81
88 86 83 88 96 100 99 99 99 100 93 94 100 83 79 75 73 78 78 72 78 85 89 92 92 82 83 97 90 78 77 68 64 72 53 60 62 67 65 69 73 83 87 88
86 84 81 94 100 100 99 96 99 100 95 98 100 100 84 75 81 88 89 86 92 90 93 95 95 93 91 98 98 69 71 57 56 57 58 61 74 75 82 90 96 96 96 93
85 82 81 95 99 95 98 100 99 100 96 96 100 100 91 78 96 98 91 99 94 96 95 97 97 98 97 100 86 72 63 64 62 79 76 72 84 94 96 96 96 98 95 85
82 87 95 99 92 96 96 99 100 99 90 100 100 100 100 83 93 94 92 91 99 98 99 97 93 98 99 87 85 74 72 63 67 96 96 97 96 98 97 94 96 94 91 78
91 99 95 100 100 98 90 87 92 100 100 100 100 96 98 88 92 98 95 96 99 99 93 92 100 98 78 78 76 75 72 82 86 88 85 98 98 95 96 98 86 84 84 72
98 98 100 100 94 90 94 98 100 99 100 99 98 94 98 89 95 95 93 98 99 96 90 92 94 97 81 65 70 81 82 75 80 78 79 84 89 94 93 89 83 85 48 45
83 87 91 89 96 99 95 93 98 99 94 99 98 97 96 100 99 99 100 94 98 90 92 96 87 83 64 62 57 63 72 72 76 72 79 82 83 90 91 88 68 44 41 39
76 91 100 96 100 98 93 94 90 98 99 100 100 99 98 100 98 100 99 98 96 88 96 91 83 74 61 59 60 64 75 74 67 66 66 70 83 79 70 48 40 39 37 36
99 98 99 92 100 93 95 93 94 98 98 99 97 100 97 99 100 97 94 99 90 98 98 89 75 70 68 63 60 60 57 70 66 61 55 44 45 39 35 34 34 35 39 39
100 97 94 98 92 99 99 99 94 99 96 94 97 94 90 96 93 89 97 98 96 92 88 86 77 54 58 54 59 64 70 79 83 66 58 45 41 40 39 37 38 40 42 46
100 99 99 98 96 99 97 98 100 99 98 97 94 93 92 89 84 94 96 93 92 83 91 91 92 60 56 55 57 64 72 80 85 75 56 46 44 43 42 40 43 46 48 48
99 99 97 98 98 94 96 96 98 94 94 99 94 96 90 95 96 100 93 94 86 90 93 96 90 83 76 65 56 62 70 79 82 81 60 45 40 41 49 64 52 50 51 55

GFSNW_925_rhum_012.txt.gz
RH
87 88 85 65 63 51 58 85 66 68 66 75 84 85 83 84 91 84 81 56 65 68 70 66 78 77 68 56 53 57 53 61 66 50 40 36 37 38 37 47 43 52 52 45
90 89 90 70 68 65 68 78 75 71 69 77 82 61 70 86 82 70 70 80 67 68 69 78 73 72 60 60 56 59 55 69 82 62 53 49 49 39 38 47 52 56 52 46
97 94 90 84 72 62 79 77 65 62 70 71 69 65 64 68 62 62 58 62 60 64 70 67 74 71 62 56 56 63 53 60 61 63 55 56 58 54 45 44 58 49 56 38
97 99 89 90 76 56 80 72 61 64 58 56 57 53 55 62 62 54 60 61 55 58 68 63 72 66 57 50 50 50 51 57 50 47 43 43 48 53 57 57 50 43 42 46
99 100 89 90 69 57 66 68 62 66 65 55 53 60 55 59 59 59 62 65 58 55 62 59 65 62 55 52 49 52 50 55 42 43 40 37 40 39 42 48 49 52 48 45
99 99 92 91 71 60 72 72 67 55 62 54 51 56 54 52 57 53 54 57 50 49 45 41 40 49 50 49 50 53 49 46 42 44 49 42 40 41 41 39 38 38 39 31
100 99 99 89 81 62 73 76 79 58 57 58 58 52 53 53 51 57 52 52 51 47 39 34 35 41 51 53 57 52 54 56 58 58 53 66 37 41 40 38 38 35 37 39
99 99 100 92 86 67 60 73 71 67 66 62 60 56 58 54 55 59 55 53 52 53 39 55 55 60 51 58 70 65 52 58 69 70 73 59 49 44 42 41 53 53 52 47
95 99 100 96 90 80 74 76 79 79 67 57 48 56 52 61 61 57 51 44 51 45 56 68 80 81 62 66 70 61 56 60 62 88 81 79 51 42 40 38 60 55 51 50
91 95 100 98 93 87 86 77 79 84 81 73 57 57 59 60 64 68 55 46 44 48 69 84 86 78 58 72 75 72 68 68 72 82 82 74 54 48 41 55 53 61 61 62
92 91 96 100 99 92 90 84 79 82 92 86 72 60 58 62 64 72 64 66 62 65 72 80 76 79 70 66 69 75 74 87 82 82 83 80 48 48 52 58 55 56 57 55
92 92 92 96 99 98 91 93 77 80 92 90 87 77 70 54 57 70 67 73 67 66 77 80 79 77 76 75 75 59 70 72 79 71 72 55 57 58 53 55 56 54 52 51
93 94 90 92 94 98 94 90 84 81 93 92 89 87 74 67 54 53 70 71 62 68 74 84 82 72 79 82 81 66 59 60 68 62 56 67 60 55 56 56 58 58 58 58
90 89 91 94 99 99 94 92 90 82 93 94 94 74 77 74 71 56 56 62 66 72 78 86 84 81 76 86 80 78 69 65 72 76 66 58 68 60 63 61 58 63 64 62
89 87 88 97 97 100 97 93 95 91 88 96 97 82 75 73 75 64 56 62 70 76 84 88 89 91 86 95 94 98 85 77 81 81 68 65 68 59 61 67 66 70 67 72
87 85 84 99 100 100 95 96 96 92 90 88 99 86 81 79 78 74 73 76 82 87 89 94 92 84 84 98 89 74 80 73 65 68 62 62 61 70 65 68 72 83 79 80
87 84 82 91 100 94 94 95 99 98 87 94 100 100 83 78 82 89 90 87 93 89 95 96 92 88 88 97 96 76 74 74 58 59 60 64 69 68 80 86 91 92 90 88
87 84 88 100 97 92 95 100 100 99 93 94 99 100 92 78 97 98 92 98 93 95 98 96 95 96 95 99 85 69 68 64 67 73 76 75 83 93 93 92 90 93 97 93
85 87 97 94 86 94 96 100 100 97 90 100 100 99 100 84 97 96 94 91 98 98 98 96 92 99 98 87 83 76 74 64 68 89 94 96 98 94 91 92 90 98 93 86
93 98 90 100 100 96 92 86 94 99 100 100 100 92 99 90 94 99 94 97 100 100 96 94 100 96 85 82 81 76 73 70 88 93 87 97 95 95 90 95 92 97 90 88
99 98 100 100 96 88 94 99 100 100 100 99 98 91 98 88 97 99 94 98 99 97 92 94 94 97 84 69 76 81 88 81 85 73 74 78 83 89 97 88 94 87 84 61
87 89 93 92 96 100 90 97 98 99 94 99 98 98 95 99 96 96 100 90 96 92 91 91 94 83 65 65 68 72 75 75 78 74 73 76 86 88 91 92 90 88 64 41
84 91 100 94 100 98 90 98 94 97 98 100 100 99 98 100 99 99 99 95 96 90 97 91 86 75 68 64 62 63 69 72 71 70 75 81 85 84 90 89 81 65 44 39
99 99 99 96 96 95 93 92 92 94 99 99 98 99 96 99 99 98 96 100 90 97 99 93 75 67 68 69 64 62 58 74 74 72 68 63 81 86 75 64 48 43 42 37
100 98 92 99 90 98 99 99 98 100 94 91 93 96 92 98 96 91 96 98 96 88 88 86 79 58 66 65 62 61 62 67 78 75 72 62 49 43 40 38 36 36 37 42
100 97 99 98 89 100 98 100 99 99 94 95 93 89 92 94 92 90 94 91 90 82 91 90 94 63 58 54 54 55 59 67 74 77 75 64 54 48 43 37 41 41 43 46
100 99 95 97 95 96 96 96 99 92 93 99 96 91 85 92 94 100 94 91 84 87 89 94 89 80 74 68 66 62 58 68 73 77 80 74 57 48 46 58 44 45 50 52

GFSNW_925_rhum_015.txt.gz
RH
91 84 94 94 77 52 60 91 76 90 84 87 87 96 92 79 86 90 88 60 65 66 68 78 86 77 65 56 55 60 51 56 62 48 43 38 37 37 39 54 48 55 56 49
92 91 96 96 87 69 72 86 79 89 86 84 83 94 95 92 90 80 72 63 64 58 67 88 78 75 64 60 55 60 58 70 82 64 57 53 48 41 39 50 53 56 54 46
94 98 100 96 93 78 76 88 71 81 88 76 66 82 92 90 70 78 70 76 71 67 71 68 80 75 65 57 57 64 54 65 59 57 57 61 59 51 46 46 59 53 55 41
96 97 100 95 94 66 73 81 63 68 70 63 58 56 69 76 76 75 76 77 83 66 74 70 78 68 60 53 54 50 49 57 52 50 50 54 56 58 53 49 45 47 40 50
90 97 100 97 91 64 70 74 69 70 70 56 52 57 63 64 64 70 87 88 65 68 64 61 71 64 58 55 50 49 49 59 44 43 42 39 43 44 60 56 53 50 50 51
90 97 99 98 90 64 76 77 74 57 65 57 53 57 57 60 58 54 57 62 54 59 54 43 48 52 52 53 52 53 46 49 44 46 48 40 36 43 44 41 42 44 44 32
95 97 99 100 91 61 69 79 84 57 55 62 57 56 54 62 52 58 54 51 48 46 39 38 41 44 52 56 61 52 51 52 51 53 50 50 34 44 40 40 49 41 49 48
94 94 100 100 93 69 64 78 77 67 66 67 59 58 62 55 56 57 55 55 55 52 43 52 55 62 46 58 69 57 52 57 68 64 62 50 50 44 49 49 63 56 53 52
96 92 100 100 96 83 69 81 82 76 70 60 54 58 54 60 60 54 52 45 51 46 65 70 75 78 62 67 68 54 53 55 58 87 81 76 50 42 41 40 77 60 57 60
92 92 99 100 99 90 86 78 86 82 73 74 57 56 58 59 62 65 54 47 45 51 75 86 88 79 60 78 77 64 60 65 68 76 76 68 51 46 43 59 58 60 59 60
90 92 94 100 100 93 91 81 85 84 89 87 80 63 59 65 66 69 63 65 63 71 76 82 84 77 68 70 72 66 65 79 78 82 80 71 52 51 56 61 62 59 57 55
90 92 91 97 100 96 90 86 81 83 90 86 89 82 76 58 58 71 69 74 67 70 86 83 84 81 79 77 79 67 74 67 71 68 69 58 57 59 58 59 60 55 52 51
88 91 92 95 98 99 89 84 84 81 93 93 90 91 78 66 61 56 72 77 66 76 72 82 81 70 81 82 78 67 61 65 70 67 66 64 59 58 55 54 55 54 56 59
88 89 90 89 94 99 92 87 88 79 92 94 94 79 80 75 72 57 58 66 73 78 83 84 86 82 78 86 76 76 70 70 74 73 67 72 65 58 57 59 59 62 66 65
90 88 84 89 93 97 89 88 91 85 84 96 98 84 75 78 74 60 59 65 74 83 86 87 88 93 87 96 92 95 85 76 79 78 67 66 69 66 62 67 65 65 67 74
90 85 85 92 98 93 88 90 93 89 82 87 100 87 83 85 73 80 85 84 91 94 91 93 92 85 80 98 97 74 79 77 68 70 68 66 64 69 66 69 76 87 84 81
88 86 94 100 100 94 90 89 94 94 78 90 100 92 83 80 84 91 89 86 97 92 96 95 91 90 86 94 96 72 74 76 66 63 67 69 70 76 88 90 95 93 94 91
89 88 98 100 92 90 95 99 100 89 88 91 99 100 93 79 97 98 96 97 94 97 98 95 92 93 93 98 86 72 73 74 75 82 83 80 89 91 96 93 94 94 97 95
88 92 97 86 81 94 100 99 99 84 82 100 100 99 99 85 98 96 94 94 99 97 99 95 87 97 98 83 85 80 76 67 78 94 97 99 96 99 96 91 94 96 95 96
94 90 87 100 100 100 90 82 93 99 99 100 98 92 99 91 94 99 94 97 100 100 97 94 100 98 84 85 82 77 75 74 88 93 86 97 99 98 96 94 88 86 93 92
98 98 100 100 98 82 93 100 98 100 100 99 95 92 97 90 97 99 97 99 99 98 91 97 96 96 87 73 81 83 88 81 82 73 72 70 70 81 90 94 88 95 97 92
89 92 96 95 95 99 92 97 99 99 96 99 98 98 96 100 94 98 99 93 95 81 91 93 94 89 70 70 66 72 79 77 77 74 74 73 78 84 90 90 92 93 88 77
89 93 100 98 100 99 96 100 98 99 99 100 100 99 98 100 98 99 96 94 84 90 93 90 89 78 69 71 70 70 70 71 73 72 73 76 80 83 88 89 88 86 85 60
99 100 98 96 98 94 88 92 91 93 99 99 97 99 98 99 99 97 88 99 93 98 100 95 82 74 72 76 68 63 63 72 71 72 69 69 74 84 84 86 82 75 63 48
100 100 97 98 94 99 99 98 98 99 94 91 93 94 92 99 98 91 97 98 96 87 90 90 79 66 72 65 63 61 59 59 67 71 74 72 64 68 71 67 60 54 49 42
100 99 99 96 98 97 99 99 99 99 90 91 92 96 96 98 94 98 91 92 94 86 92 91 92 63 60 52 52 54 56 60 64 67 72 72 70 60 52 45 40 38 38 39
99 99 96 97 97 95 94 94 99 91 79 98 96 92 92 93 97 100 93 90 84 90 91 96 84 74 72 64 64 67 63 61 62 66 70 75 73 67 56 60 44 39 42 46

GFSNW_925_rhum_018.txt.gz
RH
90 97 97 97 99 81 72 90 85 100 100 100 98 98 94 85 88 89 86 81 64 72 86 76 74 83 74 59 54 48 48 57 57 51 43 37 36 42 45 60 56 62 62 53
87 96 96 99 100 90 73 86 94 99 99 98 96 93 93 90 92 91 84 67 57 59 73 91 86 74 65 61 55 61 56 66 84 65 56 55 45 42 42 52 54 60 59 50
83 92 94 99 100 97 85 91 86 97 97 90 81 93 92 94 88 85 72 64 56 71 78 74 87 83 66 60 57 68 56 66 58 66 52 59 61 51 48 48 63 59 58 42
82 91 96 97 100 96 89 87 70 72 78 74 67 70 81 82 90 76 73 73 65 67 81 78 82 71 66 57 70 57 49 61 55 50 55 56 56 56 53 52 50 53 46 50
86 88 93 97 100 88 86 79 73 74 66 57 57 64 66 81 66 77 79 76 67 62 66 65 81 69 65 65 54 51 50 60 46 46 42 45 51 55 54 52 52 43 50 48
86 89 94 97 100 88 84 79 80 58 61 56 54 58 71 66 61 76 83 64 70 66 55 48 52 54 56 56 52 53 50 51 54 57 46 38 42 44 68 58 53 55 62 50
86 86 95 97 100 92 75 75 82 63 54 58 58 55 59 65 56 77 79 74 60 53 39 46 47 46 54 56 58 50 51 48 52 57 46 52 39 45 43 51 50 42 45 49
85 84 94 100 100 95 74 76 79 67 63 68 59 58 62 56 58 58 60 55 54 45 44 78 70 70 42 58 61 57 51 53 65 58 54 48 50 53 54 52 63 57 59 59
87 93 93 100 100 98 77 84 80 73 71 65 56 60 55 59 58 56 54 47 53 50 68 67 76 92 66 58 60 50 53 57 53 84 78 62 49 46 42 48 78 61 60 62
88 95 90 100 100 100 96 81 91 77 75 76 59 59 58 56 57 65 53 47 45 54 78 85 86 78 62 70 68 58 64 70 67 78 76 68 49 46 43 60 60 66 64 60
91 92 89 100 100 100 92 85 91 84 87 88 78 64 61 62 62 57 58 58 57 70 73 82 86 76 72 73 69 61 61 78 77 83 79 71 52 51 57 60 64 61 60 59
92 86 86 98 100 100 97 88 86 86 88 89 91 85 77 61 58 68 71 71 67 67 84 82 84 81 79 77 78 71 68 58 64 67 68 60 60 56 64 60 64 60 60 57
89 87 88 90 100 100 96 87 86 84 94 94 90 94 80 74 74 60 72 80 67 76 75 86 84 70 83 82 78 68 64 67 72 66 65 64 63 62 59 56 59 60 60 64
88 92 90 87 95 100 93 87 87 79 90 96 96 81 79 77 74 61 61 67 77 83 85 86 86 79 80 81 74 72 70 69 74 75 77 69 64 59 62 64 67 72 70 68
90 90 93 91 89 95 91 87 92 86 81 97 99 82 77 82 66 66 64 68 77 86 85 84 88 92 90 97 90 89 84 76 78 76 71 71 72 65 64 68 66 68 72 79
89 90 94 91 92 93 85 89 89 86 86 90 100 88 85 83 77 81 88 89 92 93 90 95 94 86 84 96 94 73 82 80 72 70 70 74 76 76 68 78 83 82 83 76
86 92 90 93 100 96 89 84 90 88 83 90 100 98 83 80 84 92 89 86 96 91 95 95 92 92 86 91 93 68 78 79 74 73 74 74 71 78 85 89 95 91 94 93
93 93 99 100 93 92 96 98 92 84 85 89 100 100 94 80 97 98 95 95 92 97 98 96 92 94 89 97 84 77 80 83 83 84 81 78 91 93 96 94 94 95 92 90
94 99 97 84 81 94 99 89 82 77 76 99 97 97 98 85 98 96 92 93 99 96 98 96 87 98 98 77 84 85 82 76 87 96 98 94 97 100 96 91 91 92 88 92
97 88 84 100 100 99 89 76 91 98 100 95 97 93 98 93 95 99 93 97 100 100 97 94 100 98 83 83 79 78 82 83 95 97 96 99 97 99 96 96 93 92 90 92
85 98 100 100 96 80 96 99 96 98 98 96 95 91 97 90 97 99 98 99 98 99 94 98 98 96 88 77 80 84 89 86 77 72 73 69 61 76 82 89 92 91 90 96
86 95 96 91 93 94 88 99 99 98 90 98 98 97 97 99 94 94 98 96 94 91 93 97 99 87 75 74 77 85 90 87 84 72 74 76 77 80 85 86 88 91 92 94
88 94 100 99 100 99 97 99 99 100 99 100 100 99 98 100 95 99 95 90 92 89 92 77 86 82 74 78 76 76 76 77 76 74 69 71 75 80 84 86 87 88 91 89
98 100 98 97 99 95 87 92 92 93 100 99 96 99 99 99 97 95 87 94 90 99 95 98 88 79 75 78 72 68 68 69 68 65 65 64 71 76 80 85 86 87 88 83
100 100 97 99 98 98 99 96 98 99 96 92 94 95 94 99 98 93 97 99 96 85 90 88 82 77 79 77 73 68 61 66 67 67 71 70 68 69 70 74 81 79 71 64
100 98 97 95 96 99 99 97 99 99 90 91 91 96 94 99 95 99 95 93 94 87 92 93 89 80 70 66 63 60 60 60 61 63 65 67 71 70 64 56 52 48 48 48
99 99 92 96 97 96 96 96 99 92 85 97 94 90 92 94 98 97 94 94 86 92 93 91 79 74 67 64 65 67 66 64 63 63 63 65 69 73 69 72 58 47 45 44

GFSNW_925_rhum_024.txt.gz
RH
80 83 81 88 98 100 98 81 92 100 100 97 95 96 91 84 86 82 87 73 53 48 49 52 58 58 51 41 46 79 65 38 57 76 52 43 43 55 53 62 55 42 38 31
80 85 82 89 99 99 73 62 88 100 88 93 97 86 89 88 90 93 94 90 49 43 46 56 66 52 38 48 50 59 52 47 63 66 62 52 60 43 44 41 37 42 43 34
83 86 82 87 97 100 84 73 96 98 98 95 95 94 94 96 83 85 83 84 48 44 43 43 60 66 52 51 47 60 44 46 44 51 45 47 65 63 40 44 52 40 37 30
84 86 82 87 99 100 82 73 72 79 97 87 96 94 92 94 95 89 86 90 66 40 45 49 62 60 62 62 57 58 57 48 42 39 44 41 44 56 56 42 38 41 33 35
86 86 83 87 100 100 92 65 71 70 68 72 74 97 93 92 91 90 94 81 71 45 54 50 61 64 57 68 61 53 50 48 43 44 47 44 43 40 46 45 35 33 33 33
89 88 84 87 98 99 91 84 78 62 52 54 82 90 90 88 80 89 74 56 54 54 56 50 43 44 46 49 59 58 50 47 47 49 44 48 54 42 40 38 33 32 38 30
99 89 84 86 96 99 85 76 66 66 53 54 74 61 93 91 89 89 70 49 49 48 43 43 44 46 48 48 48 46 51 49 52 50 42 84 38 38 32 36 31 30 31 33
100 92 83 84 94 100 99 84 73 68 62 48 77 65 80 82 89 89 83 79 67 49 48 62 77 90 86 77 53 58 55 52 66 68 53 42 36 44 42 44 39 36 35 36
100 92 84 84 93 100 100 98 77 64 62 50 58 69 54 67 87 92 93 83 69 62 62 71 98 98 96 94 75 55 56 60 75 66 63 67 35 41 36 35 42 42 36 44
100 88 82 84 90 99 100 88 80 70 67 59 62 53 54 47 75 93 87 87 84 78 80 73 77 77 63 84 82 82 65 59 87 90 88 43 41 41 40 40 40 48 41 45
100 88 82 84 92 99 100 97 86 80 70 74 80 63 53 51 57 93 79 83 86 93 88 84 76 62 68 57 48 60 62 72 64 78 80 64 42 45 41 47 51 50 49 50
100 86 82 85 92 99 100 99 96 95 78 84 94 88 84 68 57 60 66 61 68 84 87 76 69 61 62 54 54 53 53 50 43 44 45 57 54 51 52 46 50 50 50 49
100 87 81 88 91 98 100 98 99 95 89 88 83 80 82 82 82 64 53 65 54 63 63 69 74 65 59 60 57 57 55 55 48 52 59 58 55 55 50 46 49 50 49 51
100 89 83 88 89 99 100 97 88 89 83 83 86 82 77 81 70 66 65 59 68 62 61 68 69 65 66 63 56 54 52 56 54 66 66 59 56 51 52 56 55 57 56 55
100 91 86 86 90 99 100 99 97 86 83 84 90 77 82 82 72 70 67 63 64 64 71 71 76 72 72 81 66 61 55 52 50 47 48 46 49 53 55 57 59 57 61 65
100 91 87 87 91 100 100 100 100 98 86 87 98 81 80 80 77 74 76 76 76 79 77 86 83 79 70 81 70 55 53 55 50 46 46 56 49 54 54 58 60 61 59 62
97 90 88 90 98 100 94 88 99 99 86 90 99 98 81 78 78 81 76 76 84 79 84 83 80 80 71 70 70 50 58 57 61 57 58 66 58 61 61 63 67 72 73 73
92 88 92 99 100 94 91 92 87 83 78 83 100 98 95 79 93 92 85 86 82 89 87 85 79 84 76 95 62 58 65 66 64 64 63 54 65 69 76 77 80 84 80 76
89 94 100 99 92 94 92 80 74 70 72 97 97 100 100 86 96 92 88 90 98 92 91 86 81 83 98 76 64 63 69 64 68 80 82 82 89 98 99 96 90 84 82 76
98 99 90 100 99 91 81 71 81 93 96 90 90 83 99 92 93 98 93 97 100 100 99 93 100 92 70 69 64 58 66 71 76 92 99 100 99 100 98 89 80 71 65 72
86 96 99 100 93 75 90 99 91 91 98 88 86 78 93 85 95 98 92 99 98 99 93 98 93 87 78 75 78 76 80 76 69 64 66 69 73 82 80 73 69 69 72 74
82 93 94 84 88 92 92 94 97 98 91 96 95 89 86 96 87 92 94 98 92 96 82 96 88 71 69 78 81 79 75 70 66 64 68 65 70 63 60 64 69 74 77 83
87 92 100 95 99 98 97 96 95 99 100 100 100 100 93 93 82 96 83 90 90 81 97 86 70 71 73 74 81 85 73 67 60 62 63 62 69 70 67 69 75 78 81 87
98 100 100 99 100 91 90 82 88 87 99 98 95 99 95 90 89 81 85 89 83 88 92 80 61 66 72 76 82 81 80 64 64 66 65 68 68 70 74 73 80 81 82 88
100 100 99 100 96 96 95 93 96 100 93 94 95 97 85 92 88 76 89 94 89 76 76 66 62 70 69 76 80 79 73 65 61 57 57 60 61 62 67 78 84 84 84 86
100 98 96 94 94 99 97 95 100 99 86 86 89 95 92 97 88 93 95 85 84 73 75 75 76 68 61 61 64 60 56 52 53 54 56 58 59 57 58 63 69 76 78 76
99 96 86 89 91 94 93 90 98 90 83 91 89 86 86 92 98 98 83 85 72 75 78 76 75 70 66 59 56 54 56 56 57 58 60 62 67 66 65 63 68 58 54 52

GFSNW_925_rhum_027.txt.gz
RH
99 91 95 80 80 96 100 92 95 88 100 98 95 95 81 88 90 83 90 87 86 76 46 41 41 49 37 32 38 79 78 67 100 93 59 55 53 62 46 45 48 35 32 32
97 99 94 79 87 100 85 92 86 100 93 98 96 78 89 90 92 89 93 94 83 55 37 43 39 38 32 36 40 67 55 48 96 97 70 63 67 50 49 42 40 40 36 33
91 100 90 80 93 100 74 87 97 100 98 83 91 89 96 96 86 91 86 89 66 54 37 32 39 41 37 38 34 60 55 49 43 48 50 56 60 49 44 47 50 39 35 29
96 95 95 82 93 100 94 93 78 68 93 92 92 95 90 95 96 90 83 92 78 51 43 38 45 44 42 45 46 54 54 51 40 37 36 43 49 55 47 46 43 43 33 31
96 100 90 86 90 100 94 93 72 67 80 69 79 92 93 95 92 89 95 95 80 43 35 34 44 46 44 53 45 45 52 53 40 39 36 38 41 44 47 45 39 38 35 31
99 98 91 85 91 100 97 91 74 61 48 53 62 70 86 88 88 88 76 81 69 44 28 25 30 35 35 41 47 51 57 55 48 45 38 41 49 37 35 39 40 37 39 30
94 94 100 88 94 99 87 75 75 83 55 36 41 65 82 92 95 92 73 66 62 36 57 56 62 39 41 39 47 45 54 53 52 57 44 67 32 31 29 31 30 31 32 28
98 97 99 95 95 99 98 78 81 72 54 37 43 73 83 94 93 91 64 58 53 42 72 71 75 82 73 71 52 47 42 45 57 62 50 39 34 34 35 36 35 27 28 27
100 91 99 96 95 99 100 95 85 88 58 38 50 69 63 92 96 92 81 65 57 48 61 88 97 100 96 98 80 59 55 46 58 63 72 67 35 34 30 29 43 26 26 27
97 95 100 92 94 98 100 99 98 89 64 45 53 76 71 64 94 97 87 76 70 67 71 88 90 93 82 98 98 88 92 80 77 84 74 55 34 33 30 44 44 35 30 30
98 97 100 90 94 95 100 98 95 84 60 57 64 59 48 48 77 90 93 92 87 88 86 77 61 69 65 66 69 68 90 97 99 94 100 88 36 40 40 46 42 38 35 37
98 96 100 94 94 96 100 100 95 96 83 79 82 74 69 61 64 90 87 86 83 87 92 78 58 55 61 50 66 43 65 52 54 62 60 48 37 45 42 40 43 41 43 45
97 97 99 98 92 98 99 99 99 97 91 78 77 71 74 79 80 82 90 89 82 91 77 85 77 62 47 61 49 46 44 44 40 41 45 47 44 47 45 40 43 43 43 45
100 98 99 97 90 96 100 97 94 96 70 76 78 77 71 78 75 73 63 68 55 71 80 91 87 75 58 56 49 42 42 45 44 46 55 53 50 45 45 45 45 48 45 44
98 97 100 94 92 96 100 100 97 87 85 76 82 70 74 72 66 64 61 51 54 58 73 76 76 66 66 65 57 53 47 42 46 42 39 40 42 45 46 50 52 50 54 56
98 96 100 94 97 97 100 99 99 96 90 78 92 76 73 69 64 62 66 68 64 65 68 76 72 68 64 76 69 45 41 41 44 41 39 43 44 48 45 50 51 50 51 55
97 97 99 97 97 100 96 96 99 100 91 88 99 92 79 72 69 71 68 66 80 74 76 76 71 71 68 66 71 47 43 44 49 46 48 52 50 54 48 52 55 56 56 57
94 100 99 98 100 97 95 97 100 96 92 91 100 98 94 76 87 88 78 80 77 84 81 79 72 75 68 94 60 44 46 51 51 51 52 46 49 52 59 63 66 69 66 64
100 100 100 99 93 96 96 87 91 79 87 98 99 100 100 81 94 88 85 82 93 83 83 78 79 73 98 81 64 52 54 54 58 67 67 69 78 91 88 82 72 70 70 65
100 99 94 100 98 87 84 82 83 92 95 91 87 71 99 88 90 97 92 96 98 100 96 86 96 90 65 62 56 46 53 56 74 95 98 99 100 98 95 77 66 60 63 61
98 97 98 100 94 71 87 100 93 94 95 84 77 65 93 82 95 96 93 100 100 100 91 95 87 81 71 64 64 58 61 66 63 55 66 68 76 77 70 69 58 54 58 62
87 94 91 80 90 98 97 99 97 96 92 89 85 80 77 89 88 93 96 99 95 97 76 97 87 64 61 68 67 66 64 61 59 57 59 60 61 60 54 56 59 61 67 74
92 91 100 96 99 100 99 98 96 93 92 100 98 98 88 86 83 95 86 100 90 73 89 82 66 67 66 72 73 71 62 58 59 61 61 56 55 55 57 62 64 66 68 77
98 100 100 100 100 88 87 73 82 86 99 98 95 96 89 80 88 79 97 83 78 89 91 81 56 61 66 73 75 65 61 58 60 62 63 65 62 63 63 65 66 68 73 85
100 100 100 100 95 95 92 90 95 98 92 90 94 93 80 89 90 73 86 94 89 78 74 61 55 63 68 78 76 64 62 60 58 56 58 61 61 62 69 73 74 75 79 81
100 100 95 92 96 98 92 95 100 99 84 88 88 98 97 95 85 88 88 81 82 72 70 77 69 64 70 77 74 62 56 54 51 50 51 53 54 54 60 71 74 75 75 76
100 97 75 87 90 91 89 87 98 82 80 98 94 95 94 88 92 89 77 82 71 77 73 67 67 68 73 66 57 54 52 50 51 52 53 58 58 57 55 63 68 56 60 61

GFSNW_925_rhum_030.txt.gz
RH
95 92 100 100 92 90 99 96 98 100 100 98 97 96 77 63 84 86 93 94 95 95 77 76 53 52 40 34 67 81 81 95 100 98 82 69 63 67 62 57 50 46 44 45
99 92 95 94 99 99 95 97 98 100 94 97 97 83 78 76 93 94 95 95 91 84 81 79 47 41 33 36 56 73 80 94 100 99 89 74 87 69 66 50 50 51 50 47
98 97 94 92 100 100 84 98 98 100 99 88 87 88 83 84 86 94 91 91 87 93 88 55 42 39 38 40 42 65 75 85 98 100 84 75 80 75 56 58 64 50 42 40
96 93 90 100 100 100 79 97 90 81 98 96 96 88 89 96 99 91 90 96 95 90 69 60 37 36 42 46 46 60 86 73 69 63 62 62 59 59 49 62 56 55 41 35
96 98 98 98 100 100 96 97 86 83 72 73 89 92 90 93 91 96 96 96 91 74 68 37 40 38 44 48 42 53 66 80 52 46 46 47 55 54 51 49 51 50 48 45
98 96 96 94 100 99 98 94 77 73 69 71 81 82 82 85 88 89 79 87 86 86 62 30 29 34 36 42 54 59 73 71 56 52 42 42 54 50 55 53 48 44 51 40
98 96 89 90 100 98 87 83 83 87 84 69 59 50 62 80 87 94 86 78 82 60 44 32 34 40 39 44 45 43 57 67 66 73 48 75 40 34 34 41 39 44 43 38
98 98 92 93 100 100 96 73 83 93 92 70 68 44 79 92 96 96 88 79 60 53 69 64 82 76 73 67 63 55 50 60 75 86 64 47 38 38 37 42 40 34 40 40
96 98 95 97 87 96 100 86 77 94 93 82 52 69 82 96 98 98 81 64 63 56 88 84 99 93 93 96 82 66 60 54 70 96 84 83 46 35 32 31 55 46 35 37
92 96 98 91 99 99 100 99 89 95 96 70 59 67 81 89 98 98 82 74 67 68 94 92 90 87 76 94 99 95 83 83 92 84 96 71 39 34 32 55 54 45 38 43
91 97 97 97 100 99 100 98 98 92 95 76 64 64 83 71 95 94 88 86 82 88 93 90 83 90 86 91 81 86 88 95 94 93 98 91 38 41 46 52 44 39 51 54
92 98 97 98 99 99 100 99 98 100 100 93 78 71 70 61 68 92 96 91 82 84 89 85 65 68 71 69 93 61 87 80 89 84 76 51 42 51 44 44 46 51 63 62
92 98 99 98 99 99 99 98 100 99 98 91 86 78 73 78 74 83 92 96 91 89 87 87 85 66 63 70 65 58 53 60 54 59 52 52 49 49 46 45 53 57 58 59
90 95 99 98 100 98 100 97 97 93 94 89 90 75 73 76 77 81 92 94 84 93 94 95 96 91 67 73 59 55 52 52 54 54 56 55 52 51 53 57 57 57 56 59
94 97 98 99 100 99 100 99 97 92 99 94 91 71 74 70 67 71 77 93 68 78 96 96 97 91 80 77 67 63 52 51 57 60 48 48 56 56 55 59 62 61 61 66
96 97 98 98 100 100 100 92 100 96 90 97 99 78 74 66 61 65 66 71 70 76 83 87 80 72 79 88 86 52 48 47 47 49 49 53 56 58 55 61 64 66 67 65
99 98 98 100 100 100 98 94 95 100 96 94 99 99 82 74 71 77 77 72 87 88 85 89 83 83 83 79 92 55 51 56 55 53 55 65 58 64 61 62 64 65 67 66
100 98 99 100 100 100 97 99 100 100 95 92 100 100 96 78 89 95 87 88 87 93 92 87 86 83 80 96 73 53 57 59 59 62 55 60 63 66 75 77 75 78 79 77
95 100 100 100 96 97 100 99 98 92 91 99 100 100 100 83 95 91 88 91 94 88 81 83 90 86 99 82 74 59 63 61 73 83 82 78 84 89 87 85 81 81 81 79
98 99 98 100 98 88 88 90 98 99 97 99 97 82 99 90 91 97 95 99 100 99 98 93 99 95 78 68 64 59 65 78 86 95 99 100 100 96 90 83 80 78 78 80
98 99 99 100 95 80 94 100 100 100 100 95 87 80 96 84 98 98 97 100 100 99 97 94 96 86 85 69 72 72 81 82 78 76 88 85 90 90 80 73 70 71 72 78
89 95 94 89 92 99 94 99 98 95 97 94 90 88 89 97 91 95 99 100 98 92 85 99 84 83 67 72 72 76 75 73 72 75 80 83 76 75 67 67 72 74 74 76
92 96 100 98 100 100 98 98 96 94 92 100 99 99 95 96 91 98 98 98 94 80 82 82 81 78 78 82 82 78 70 68 68 70 65 61 64 62 66 76 72 73 78 76
99 100 100 97 100 94 94 90 91 96 100 99 97 98 96 92 97 96 89 94 88 93 94 91 80 80 86 78 78 73 70 68 66 67 68 70 70 75 71 70 72 79 88 80
100 100 100 99 99 97 99 99 98 100 91 94 97 97 90 94 94 91 88 92 94 90 90 90 76 80 88 86 69 66 67 65 63 64 67 72 74 78 81 75 76 79 83 82
100 100 98 96 96 99 97 100 99 99 86 98 98 98 95 91 90 90 92 92 91 88 97 95 89 83 88 71 64 62 59 58 60 62 65 68 72 79 82 77 77 78 75 72
100 99 88 94 97 96 96 98 100 81 83 98 99 93 96 89 87 94 88 91 94 97 96 94 83 88 83 62 59 57 55 56 57 62 64 64 63 61 66 74 63 68 62 57

GFSNW_925_rhum_033.txt.gz
RH
92 98 98 93 94 99 100 98 99 100 100 98 98 100 81 57 68 76 81 92 96 97 96 99 92 70 52 47 59 71 74 92 100 96 78 78 82 90 84 72 62 62 60 50
94 99 91 99 88 99 98 97 98 100 91 97 100 92 78 69 74 81 95 98 94 91 96 100 81 59 42 56 63 71 79 98 98 100 91 92 95 82 76 84 72 64 60 52
97 99 95 98 96 98 89 98 97 99 99 93 89 96 90 88 74 77 92 95 93 95 97 88 80 61 46 57 58 67 68 89 98 100 99 82 93 81 73 76 78 71 52 56
97 99 94 96 97 100 78 97 95 84 97 97 91 90 94 95 91 89 89 98 95 95 99 97 87 66 44 50 67 80 79 100 92 94 90 85 70 75 73 67 68 66 44 48
87 98 96 96 92 100 92 98 96 85 89 80 96 96 96 93 80 93 98 100 95 94 95 70 69 61 51 56 70 84 82 87 85 86 81 68 68 65 57 53 56 57 54 47
83 98 97 95 95 98 99 95 85 81 85 85 93 94 95 83 76 79 83 91 89 96 86 68 56 35 45 44 48 68 77 82 93 78 78 70 66 63 60 52 50 52 62 46
80 97 96 89 96 99 100 83 86 91 92 79 81 80 82 81 77 94 81 90 90 71 58 59 57 45 40 46 49 52 77 75 78 84 59 77 45 38 52 55 50 51 44 37
81 94 94 97 96 96 100 80 86 94 93 77 77 84 83 83 88 88 90 86 68 66 64 68 77 77 57 84 71 59 58 70 81 89 80 57 41 38 43 54 53 48 50 47
82 94 94 91 94 97 100 79 78 94 92 89 75 80 81 91 92 98 88 72 62 61 79 79 95 100 86 97 87 68 64 64 74 97 92 82 47 37 35 36 55 48 42 54
81 93 94 94 94 95 100 91 78 90 95 83 84 88 86 85 94 98 94 77 67 70 91 91 90 99 79 90 86 95 86 79 92 90 100 86 49 37 37 50 49 53 45 54
78 91 94 96 97 95 100 98 90 88 96 85 76 72 86 84 93 98 93 86 78 89 90 91 95 86 83 87 82 86 93 96 90 87 94 92 44 38 41 49 48 61 72 70
80 91 92 96 96 97 100 99 97 94 98 97 90 75 68 72 82 98 98 92 84 84 94 91 78 85 93 89 94 79 87 76 84 81 72 55 48 49 47 49 52 64 75 74
84 88 90 98 98 99 100 98 99 100 99 94 98 89 75 74 83 80 95 96 88 90 88 86 83 70 77 87 82 78 68 70 76 74 60 56 55 49 48 51 63 68 68 70
90 86 91 97 98 100 100 98 96 88 95 97 89 76 78 76 77 81 94 92 93 90 95 92 93 88 77 79 64 68 62 68 63 63 59 54 52 52 60 66 65 69 69 69
87 88 92 97 98 100 100 98 94 87 100 97 96 78 75 74 75 81 97 94 94 98 94 92 91 92 82 84 76 69 55 60 65 68 51 48 52 61 61 61 67 68 72 76
86 92 95 96 97 100 99 99 100 92 99 99 100 82 76 70 69 81 93 97 89 90 91 94 93 77 78 89 86 57 51 50 48 47 52 59 64 63 60 66 69 69 71 71
94 94 96 96 96 100 98 92 92 96 99 98 100 100 83 75 77 85 83 79 89 90 90 92 89 85 82 88 95 60 56 58 64 61 57 65 60 70 68 69 73 73 76 76
99 99 98 93 100 100 98 98 98 100 96 95 100 100 96 78 93 94 92 93 93 92 94 90 91 86 87 97 74 59 63 67 67 65 60 65 72 74 78 74 73 80 83 80
100 99 93 100 98 99 100 99 99 98 91 99 100 100 100 85 96 92 90 94 94 95 91 94 93 91 98 76 76 65 68 63 82 86 80 76 81 87 85 82 82 84 87 80
98 100 99 100 100 92 98 96 96 99 97 99 98 89 99 91 92 98 95 99 97 100 98 92 99 95 81 82 71 64 69 82 81 87 93 91 90 88 87 82 81 77 77 73
100 99 99 100 96 80 94 100 100 100 100 97 91 87 97 86 96 98 97 100 100 99 95 95 98 95 87 73 76 79 84 82 77 80 87 80 78 82 85 86 82 81 81 80
91 93 96 94 95 99 98 100 100 100 96 97 93 93 90 94 92 94 99 99 96 90 91 98 93 84 73 80 81 87 87 83 86 86 88 86 81 74 75 76 78 81 82 70
91 94 100 98 100 99 99 98 99 97 99 100 100 99 90 94 91 98 98 97 95 85 86 91 86 81 87 87 85 83 80 82 83 86 82 72 68 67 70 82 84 84 82 67
98 100 99 94 99 97 89 92 92 91 100 99 96 99 95 94 96 98 92 87 89 95 96 92 86 85 90 82 80 85 82 71 70 72 71 72 71 80 81 83 82 83 86 75
100 100 99 99 99 98 99 100 99 100 93 90 95 95 90 97 95 92 88 94 97 92 87 90 88 91 90 77 79 75 73 69 69 67 71 76 78 83 91 85 81 82 82 79
100 98 98 97 96 99 98 100 100 100 90 96 94 97 97 90 95 95 95 92 91 81 93 96 95 95 85 80 74 73 66 64 67 70 76 79 82 87 93 88 84 81 74 70
99 98 92 95 98 98 98 99 100 89 92 99 99 87 84 92 93 100 93 90 88 97 98 97 92 91 76 70 62 62 62 64 66 71 78 80 80 79 80 82 75 66 60 55

GFSNW_925_rhum_039.txt.gz
RH
69 69 73 86 98 100 86 95 99 98 100 99 98 96 80 62 86 76 79 73 77 83 81 98 99 89 79 60 74 95 79 83 96 76 53 65 62 90 92 97 93 97 98 72
72 67 72 85 99 98 99 96 96 100 80 99 100 93 82 70 86 88 79 81 77 74 93 100 86 83 69 63 76 81 72 96 96 81 85 67 87 78 79 96 94 97 98 74
71 69 72 87 98 98 100 97 100 100 96 90 83 88 87 89 74 77 73 80 82 94 98 96 95 90 71 63 58 62 59 86 88 76 72 80 99 97 95 99 98 83 92 68
73 73 72 89 98 88 100 97 97 92 100 97 77 76 79 80 90 75 71 92 88 93 100 96 98 94 80 64 64 64 77 96 81 79 79 90 99 98 98 100 90 99 79 65
70 72 76 87 98 85 99 99 97 85 89 83 82 82 96 89 77 84 88 96 93 93 100 96 95 81 75 69 76 79 77 84 92 95 80 98 100 94 97 100 95 96 90 57
74 67 75 87 96 93 95 89 88 81 84 88 94 92 87 83 70 83 77 81 89 98 94 88 70 73 85 83 76 91 90 88 98 94 92 96 98 97 87 83 83 73 62 60
78 68 74 86 95 93 100 96 99 93 96 81 84 81 77 80 82 95 85 88 94 83 78 76 81 85 86 84 78 67 83 78 86 97 96 96 52 50 68 76 71 55 60 47
80 70 72 86 91 96 100 100 100 93 92 82 81 79 83 82 78 93 90 83 74 79 88 91 96 95 88 84 68 68 63 76 95 100 97 72 50 47 52 57 56 52 54 50
82 70 74 84 93 95 98 98 100 99 91 91 72 86 86 92 92 93 91 87 87 89 91 87 92 98 82 90 87 73 68 67 83 99 98 94 51 45 41 41 57 49 48 53
82 72 75 84 96 90 99 97 99 100 90 82 76 87 87 88 94 96 94 92 92 77 97 91 96 99 81 89 82 96 87 81 88 96 95 87 69 60 45 52 50 52 53 53
84 73 75 85 93 89 98 96 96 100 90 85 75 82 90 95 94 97 92 99 92 96 97 89 92 91 95 89 81 86 90 93 96 85 94 88 50 46 44 47 53 64 68 64
84 73 76 88 87 90 98 99 99 98 88 92 90 76 70 81 87 91 98 99 91 89 88 91 89 93 94 89 98 76 88 79 89 83 79 58 53 50 51 57 61 69 77 85
75 73 74 91 87 93 99 99 100 93 98 92 94 88 79 89 86 79 95 97 90 93 90 93 96 94 91 95 91 87 78 75 80 73 61 67 59 50 55 64 71 86 85 81
78 78 88 86 91 93 99 100 100 87 90 96 85 86 89 83 89 92 94 98 92 94 95 94 95 96 83 88 77 85 82 79 78 78 69 58 57 53 63 79 79 80 79 76
86 92 89 91 93 88 96 100 99 87 94 99 97 86 83 84 94 98 96 97 98 99 99 98 98 94 85 89 82 84 77 78 77 75 58 54 52 61 70 75 80 77 77 79
93 92 93 94 93 87 99 100 92 93 84 93 100 86 81 86 90 93 97 96 98 99 97 95 94 84 84 93 93 69 60 59 59 59 57 64 70 70 67 78 78 78 77 74
86 93 95 96 90 96 99 98 96 90 83 98 99 98 84 77 81 90 98 96 97 99 98 98 93 85 85 88 93 64 63 60 55 65 66 70 66 71 75 76 78 77 77 73
95 99 97 96 95 96 98 99 100 94 91 92 100 99 96 78 94 98 96 97 98 95 98 91 94 86 88 98 78 69 66 70 72 75 69 63 78 80 85 79 77 82 83 78
99 98 94 97 100 99 99 100 100 91 85 99 100 100 98 86 96 92 91 95 100 92 97 96 96 94 98 76 72 69 73 65 79 88 86 81 83 88 87 83 83 84 87 82
88 92 100 100 99 96 98 98 99 99 97 98 98 91 99 94 94 98 97 99 100 100 97 94 100 98 84 81 79 79 70 82 83 87 96 93 93 91 89 81 82 77 79 80
95 99 100 100 99 94 96 100 100 100 100 98 93 91 98 90 98 99 99 100 100 96 91 96 93 97 89 79 80 82 80 83 74 71 79 75 77 83 87 88 84 80 78 74
100 100 100 96 97 100 100 100 100 100 98 98 98 95 91 99 96 98 100 94 98 91 93 96 94 88 77 85 85 86 87 83 80 79 84 82 80 78 80 80 80 80 75 68
100 99 100 100 100 100 98 96 100 100 98 100 99 99 93 97 93 97 93 95 97 87 95 96 91 84 86 89 91 93 89 89 90 89 84 81 82 77 76 81 73 72 70 66
98 100 100 100 99 98 97 94 94 93 100 99 93 99 93 93 96 97 94 93 88 99 100 88 82 82 88 88 90 91 95 94 90 89 84 82 80 82 77 70 69 69 70 67
100 100 99 97 99 97 98 98 95 99 100 97 92 93 85 94 96 91 90 97 98 95 85 89 87 88 90 91 91 94 94 89 85 83 85 84 82 83 82 75 71 69 68 63
100 99 98 95 99 97 98 100 100 100 93 94 91 91 86 88 93 95 95 94 94 78 92 95 99 93 89 90 89 89 88 84 83 81 80 80 81 83 90 82 76 69 62 60
99 97 97 99 99 98 97 99 99 91 89 92 93 82 75 93 100 97 90 87 82 92 97 98 96 89 91 88 87 87 84 82 81 81 88 88 86 81 78 86 84 69 62 57

GFSNW_925_rhum_042.txt.gz
RH
80 74 77 72 84 98 91 98 97 100 100 98 100 100 80 68 88 74 75 72 80 82 85 84 81 89 78 67 81 95 76 96 98 82 60 66 67 73 74 94 87 89 85 76
82 77 77 71 87 95 98 98 98 100 74 99 100 93 80 76 89 82 70 79 72 74 84 98 81 75 64 69 78 92 75 97 98 81 84 68 85 70 69 87 95 95 96 67
84 77 76 70 86 96 98 98 100 100 95 93 85 95 82 88 72 82 72 82 77 83 84 83 88 82 72 65 70 64 65 84 88 84 71 82 97 96 84 98 98 96 88 72
84 79 75 70 87 95 100 98 99 91 100 100 84 75 74 92 88 72 73 89 81 85 95 86 89 84 81 73 69 67 78 97 92 87 78 77 95 97 95 99 94 96 67 84
82 81 76 73 90 93 95 99 97 94 82 89 93 82 86 78 86 86 86 89 79 78 84 79 86 85 90 85 79 78 82 91 79 85 73 92 99 95 95 95 95 89 91 93
83 84 79 73 87 99 95 88 94 90 89 87 97 94 87 83 70 76 73 76 78 91 80 76 75 83 82 86 85 91 93 94 87 92 82 98 100 93 91 97 95 91 96 79
84 84 74 73 86 98 98 94 99 96 99 88 84 79 82 87 86 80 82 78 86 82 83 91 90 93 85 87 92 83 92 94 96 99 97 98 85 80 94 90 80 80 76 51
87 86 75 77 84 98 98 100 99 99 94 77 78 84 80 78 78 87 82 78 76 90 94 98 100 98 96 86 76 78 82 80 100 100 100 89 52 55 80 90 78 55 61 57
88 85 79 77 85 96 96 97 100 100 90 87 72 82 78 92 96 92 91 88 90 95 94 99 95 95 83 95 93 73 80 74 96 99 99 95 54 50 49 47 78 60 57 57
87 86 79 79 85 93 97 98 100 100 92 84 76 88 89 82 90 97 92 91 99 91 97 95 97 96 76 96 88 96 90 88 99 96 99 83 63 63 58 54 52 52 55 51
87 90 75 78 88 90 95 95 99 100 95 84 74 80 90 93 87 97 93 96 100 97 99 84 89 92 93 86 76 89 91 95 97 91 86 93 53 50 48 50 55 62 64 64
89 79 76 73 92 89 93 99 89 100 100 90 90 78 70 69 80 92 97 94 95 84 91 87 91 94 96 88 97 81 89 76 84 82 80 58 59 52 52 60 62 68 76 82
76 79 75 89 87 89 95 99 92 100 95 90 90 83 81 85 88 88 95 96 94 96 90 91 92 80 90 96 93 85 80 79 84 77 63 70 65 56 59 69 73 87 85 83
75 80 91 93 91 92 95 100 96 100 91 94 86 87 90 90 97 99 95 96 91 96 97 94 93 90 83 88 80 84 81 82 80 82 73 69 63 59 72 86 85 84 81 78
84 91 92 94 93 94 93 90 92 98 99 98 96 88 94 92 99 99 98 97 95 98 100 98 94 94 87 87 81 91 86 82 84 80 62 57 54 60 77 82 84 81 78 76
79 81 87 93 95 92 94 100 95 93 98 95 100 88 93 94 100 99 97 97 98 98 97 95 94 86 89 97 95 72 71 68 65 63 54 63 72 73 71 82 81 79 76 69
90 91 94 96 91 93 97 99 99 100 95 97 99 98 85 81 89 95 98 97 98 99 99 98 95 89 88 91 95 62 68 64 60 61 68 63 66 72 80 78 77 74 72 67
99 98 99 95 94 93 99 90 93 99 95 92 100 100 94 80 98 99 98 98 98 98 98 96 96 91 91 98 80 73 65 74 74 72 68 67 81 83 86 81 76 78 77 71
100 98 88 95 99 100 96 100 99 95 86 100 100 100 99 87 96 94 95 96 100 94 99 98 95 95 98 79 72 71 73 67 79 88 87 85 88 91 89 84 82 80 81 76
75 84 99 100 98 94 99 99 99 98 95 95 98 89 99 94 94 98 97 99 100 100 96 94 100 96 84 78 79 77 71 81 86 86 97 96 97 93 89 83 81 75 76 75
92 99 100 100 100 99 97 100 100 100 100 98 95 91 98 90 98 99 99 100 100 98 91 97 92 94 88 82 83 82 79 84 73 69 73 76 78 83 86 87 83 78 74 72
99 100 100 100 98 100 100 100 100 97 95 98 99 96 92 99 94 98 99 95 92 91 94 97 96 88 81 87 89 88 85 83 76 76 82 83 81 80 81 81 81 78 71 66
96 97 100 100 100 100 100 93 99 99 98 100 99 99 95 98 93 97 94 99 99 89 97 96 92 85 84 90 92 93 89 88 89 90 86 82 82 76 76 79 72 67 67 65
98 100 99 100 99 99 98 97 95 95 100 100 95 99 95 93 97 97 98 95 91 99 100 88 82 79 85 90 92 90 95 92 93 92 87 85 81 79 75 71 67 65 66 63
100 100 99 99 99 97 98 98 98 98 100 96 92 94 85 95 94 89 93 97 98 96 88 89 86 83 90 92 94 96 94 94 94 90 89 84 77 76 75 70 68 66 64 62
100 99 98 96 99 98 98 100 100 100 96 95 94 90 90 90 91 95 100 93 94 80 92 94 99 93 90 92 94 94 92 93 92 88 84 78 76 76 77 72 67 64 62 62
98 98 96 100 100 99 98 98 98 92 90 96 91 84 78 92 100 97 92 88 83 91 96 98 97 92 92 92 93 92 91 90 88 86 85 83 79 74 70 78 79 67 63 59

GFSNW_925_rhum_045.txt.gz
RH
81 82 85 76 70 78 98 97 100 80 77 99 100 100 90 77 87 70 74 75 76 78 77 83 88 85 75 70 81 92 74 97 95 84 69 62 69 74 73 92 84 90 80 72
81 84 85 75 73 82 99 98 96 100 85 99 97 97 95 85 84 74 66 78 75 74 85 90 75 76 67 76 80 90 76 98 95 74 85 77 81 75 66 72 82 92 92 62
82 85 85 78 77 86 100 100 100 98 96 94 94 100 99 92 76 77 74 84 78 82 88 79 83 78 71 70 72 70 66 86 82 76 65 80 96 88 76 91 97 79 80 65
80 84 84 80 76 92 100 97 99 92 99 99 92 89 85 88 80 77 73 90 81 86 95 85 86 76 76 74 72 70 82 98 84 79 80 80 84 85 94 99 91 94 61 60
81 84 84 78 76 93 94 100 98 94 90 86 86 98 94 89 92 82 85 84 81 82 85 75 79 74 85 73 81 79 80 89 85 84 65 68 98 93 96 96 95 95 94 92
82 86 85 77 80 90 97 93 91 99 93 97 99 96 88 79 78 79 73 78 84 89 74 63 63 84 84 81 85 88 91 93 88 89 79 93 99 96 96 93 89 86 97 80
84 86 84 78 80 90 100 94 98 99 98 96 94 83 81 84 77 86 81 76 81 87 83 86 88 94 93 80 87 82 91 95 89 98 96 98 85 87 90 96 86 77 77 73
73 86 85 82 80 87 99 98 99 99 98 89 80 79 80 85 86 87 78 82 78 86 88 98 97 94 99 93 95 88 84 87 99 100 98 78 66 87 85 95 81 69 69 59
72 86 87 80 80 88 94 94 100 99 93 92 74 88 75 89 86 89 79 89 90 92 94 100 98 98 84 98 96 85 92 83 98 99 98 94 65 51 55 86 86 67 60 58
77 85 89 77 78 92 93 93 100 99 98 83 76 87 86 80 88 93 90 94 96 90 99 100 96 90 77 97 92 94 99 100 96 100 98 83 60 56 58 62 59 50 57 58
88 88 78 79 80 91 93 89 100 100 99 87 76 76 90 90 87 95 97 97 98 98 100 100 88 92 94 84 80 88 91 96 98 97 99 90 50 54 51 51 58 56 64 66
80 76 81 81 92 90 92 90 84 96 99 89 92 80 72 69 70 89 97 93 96 91 98 97 90 94 96 88 93 83 88 77 86 83 78 56 57 57 51 61 65 66 80 75
73 74 77 90 95 92 93 93 88 98 99 90 92 83 86 80 77 72 94 96 92 97 87 87 90 84 88 95 92 86 81 79 83 78 62 72 67 61 60 74 75 83 81 80
82 80 85 85 90 94 93 96 88 98 98 95 84 88 90 92 95 96 95 93 95 94 96 97 93 88 85 90 80 85 80 83 82 84 74 70 61 67 62 82 83 81 75 72
76 77 81 83 90 94 94 83 80 87 97 98 95 90 94 94 100 99 100 97 95 96 99 98 93 94 89 90 84 93 88 82 86 74 64 60 59 63 77 80 82 76 71 70
89 87 87 92 93 95 86 98 96 95 99 100 100 90 92 97 100 100 98 97 98 99 95 92 93 88 86 98 96 73 78 77 67 61 57 64 73 74 73 82 81 75 67 63
93 95 96 93 81 97 94 94 98 96 100 100 98 95 85 87 94 97 98 97 98 99 98 99 95 93 89 95 97 67 71 70 65 60 63 64 71 72 78 78 74 68 64 60
98 98 98 97 92 88 95 76 84 89 100 96 100 99 91 83 98 99 98 98 98 99 97 97 97 94 93 100 83 75 64 68 69 73 67 72 84 83 83 76 70 70 68 65
90 94 83 85 96 99 92 99 99 96 95 100 100 100 99 88 95 96 98 97 100 96 99 98 98 96 99 84 77 69 78 73 72 84 86 87 86 88 85 80 78 73 74 68
75 76 98 100 96 90 100 100 99 99 95 95 99 90 97 92 95 99 97 98 100 100 96 94 100 98 85 82 80 81 78 74 86 87 98 98 98 92 88 81 74 70 69 66
92 99 100 100 100 96 97 100 97 100 100 96 84 94 96 92 99 100 98 100 100 99 92 98 93 94 87 85 85 85 82 84 77 71 69 78 80 84 85 84 78 72 68 66
100 100 99 100 97 100 95 100 100 100 97 96 99 96 92 99 95 98 99 95 97 96 93 99 95 86 80 87 88 88 85 82 77 78 86 87 83 81 80 78 77 74 68 62
93 95 100 100 100 100 99 99 99 99 97 100 99 99 96 96 91 97 96 95 96 86 97 95 92 83 80 88 92 92 88 86 88 90 88 83 83 78 76 76 70 65 63 62
97 100 99 100 100 99 98 97 97 95 99 100 97 98 96 94 98 98 99 95 91 98 99 93 81 74 82 90 93 90 92 90 92 92 86 83 80 78 72 68 65 62 61 59
100 99 99 99 99 97 98 98 98 96 99 98 95 96 86 95 96 90 94 95 98 96 88 88 85 80 90 92 94 94 94 94 94 90 84 82 77 73 72 66 63 62 60 58
99 95 97 96 96 97 96 99 100 99 98 96 96 92 91 91 93 94 99 94 92 78 92 94 98 93 90 92 94 93 93 93 94 89 82 78 75 73 73 68 65 63 60 59
92 98 95 99 99 98 97 98 98 94 95 98 95 87 78 91 98 98 92 88 82 92 94 98 97 95 90 93 94 94 94 94 92 85 83 82 76 72 70 75 76 66 63 59